Temperature
20 20 20 20 20 20 20 20 20 20 20 20 20 20 20 20 19 20 19 19 19 19 19 19 19 19 19 19 19 19 18 18 18 18 18 18 18 18 18 18 18 18 18
21 20 20 20 20 20 20 20 20 20 20 20 20 20 20 20 20 19 19 19 19 19 19 19 19 19 19 19 18 18 18 18 18 18 18 18 18 18 18 18 18 18 18
21 21 20 21 20 20 20 20 20 20 20 20 20 20 20 20 20 19 19 19 19 19 19 19 19 19 19 19 18 18 18 18 18 18 18 18 18 18 18 18 18 18 18
21 21 21 21 20 20 20 20 20 20 20 20 20 20 20 19 19 19 19 19 19 19 19 19 19 19 18 18 18 18 18 18 18 18 18 18 18 18 18 18 18 18 18
21 21 21 21 20 20 20 20 20 20 20 20 20 20 19 19 19 19 19 19 19 19 19 19 19 18 18 18 18 18 18 18 18 18 18 18 18 18 18 18 18 18 18
21 21 21 21 20 20 20 20 20 20 20 20 20 20 19 19 19 19 19 19 19 19 19 19 19 19 18 18 18 18 18 18 18 18 18 18 18 18 18 18 18 18 18
21 21 21 21 20 20 20 20 20 20 20 20 20 20 19 19 19 19 19 19 19 19 19 19 19 19 18 18 18 18 18 18 18 18 18 18 18 18 18 18 18 18 18
21 21 21 21 20 20 20 20 20 20 20 20 20 19 19 19 19 19 19 19 19 19 19 19 19 19 19 18 18 18 18 18 18 18 18 18 18 18 18 18 18 18 18
21 21 21 20 20 20 20 20 20 20 20 20 20 19 19 19 19 19 19 19 19 19 19 19 19 19 19 18 18 18 18 18 18 18 18 18 18 18 18 18 18 18 18
21 21 21 21 20 20 20 20 20 20 20 20 20 19 19 19 19 19 19 19 19 19 19 19 19 19 19 18 18 18 18 18 18 18 18 18 18 18 18 18 18 18 18
21 21 21 21 20 20 20 20 20 20 20 20 19 19 19 19 19 19 19 19 19 19 19 19 19 19 18 18 18 18 18 18 18 18 18 18 18 18 18 18 18 18 18
21 21 21 21 21 20 20 20 20 20 20 20 19 19 19 19 19 19 19 19 19 19 19 19 19 19 18 18 18 18 18 18 18 18 18 18 18 18 18 18 18 18 18
21 21 21 21 21 21 20 20 20 20 20 20 19 19 19 19 19 19 19 19 19 19 19 19 19 19 18 18 18 18 18 18 18 18 18 18 18 18 18 18 18 18 17
21 21 21 21 21 21 20 20 20 20 20 20 20 19 19 19 19 19 19 19 19 19 19 19 19 18 18 18 18 18 18 18 18 18 18 18 18 18 18 18 18 18 18
22 21 21 21 21 21 20 20 20 20 20 20 20 19 19 19 19 19 19 19 19 19 19 19 18 18 18 18 18 18 18 18 18 18 18 18 18 18 18 18 18 18 18
22 21 21 21 21 21 20 20 20 20 20 20 20 19 19 19 19 19 19 19 19 19 18 18 18 18 18 18 18 18 18 18 18 18 18 18 18 18 18 18 18 18 18
22 22 21 21 21 21 21 20 20 20 20 20 20 19 19 19 19 19 19 19 19 18 18 18 18 18 18 18 18 18 18 18 18 18 18 18 18 18 18 18 18 18 18
22 22 21 21 21 21 20 20 20 20 20 20 20 20 19 19 19 19 19 19 19 18 18 18 18 18 18 18 18 18 18 18 18 18 18 18 18 18 18 18 18 18 17
22 22 21 21 21 21 21 20 20 20 20 20 20 20 19 19 19 19 19 19 19 18 18 18 18 18 18 18 18 18 18 18 18 18 18 18 18 18 18 18 17 17 17
22 22 22 21 21 21 20 20 20 20 20 20 20 20 20 20 19 19 19 19 19 18 18 18 18 18 18 18 18 18 18 18 18 18 18 18 18 18 18 17 17 17 17
22 22 22 21 21 21 20 20 20 20 20 20 20 20 19 19 19 19 19 19 19 18 18 18 18 18 18 18 18 18 18 18 18 18 18 18 18 18 17 17 17 17 17
22 22 22 21 21 21 21 20 20 20 20 20 20 19 19 19 19 19 19 19 19 18 18 18 18 18 18 18 18 18 17 18 18 18 18 18 18 17 17 17 17 17 17
22 22 22 21 21 21 20 20 20 20 20 20 20 19 19 19 19 19 19 19 19 18 18 18 18 18 18 18 18 17 17 17 17 17 17 17 17 17 17 17 17 17 17
22 22 22 21 21 21 20 20 20 20 20 20 20 19 19 19 19 19 19 19 19 18 18 18 18 18 18 18 18 17 17 17 17 17 17 17 17 17 17 17 17 17 17
22 22 22 21 21 21 20 20 20 20 20 19 19 19 19 19 19 19 19 19 18 18 18 18 18 18 18 18 17 17 17 17 17 17 16 17 17 17 17 17 17 16 16
22 22 22 21 21 21 20 20 20 20 20 19 19 19 19 19 19 19 18 18 18 18 18 18 18 18 18 18 17 17 17 17 17 17 17 16 16 16 16 16 16 16 16
Wind_Speed
4 7 13 13 15 16 16 16 16 16 16 16 15 15 15 16 16 16 16 16 15 15 14 13 13 12 13 13 13 12 12 12 13 13 12 12 12 11 11 11 11 10 12
8 10 14 15 16 16 16 16 16 16 16 15 15 15 15 14 14 16 15 15 14 14 13 13 12 12 12 12 12 11 11 11 11 11 11 11 11 11 11 11 11 10 12
10 11 15 16 16 16 16 16 16 16 15 15 15 14 14 13 15 16 15 14 14 14 13 12 11 12 11 11 10 10 10 10 10 10 9 8 10 10 11 11 12 12 12
12 12 15 17 17 16 16 15 15 15 15 15 15 14 13 13 15 15 14 14 13 13 12 11 10 11 10 10 9 9 9 9 9 8 6 7 8 10 11 11 12 12 12
11 12 16 18 17 16 16 15 15 15 14 14 14 13 13 13 13 13 13 13 12 12 11 10 9 10 9 9 9 8 8 8 8 7 6 7 7 11 11 11 12 12 12
11 13 16 18 18 16 15 15 14 14 13 13 13 13 13 12 12 12 12 12 11 11 10 9 9 8 8 8 7 7 7 7 6 6 6 7 8 10 11 12 12 12 12
10 11 16 18 18 16 15 14 14 13 12 12 12 12 12 11 11 11 11 11 10 9 9 8 8 7 7 6 6 6 7 7 5 5 6 7 10 12 12 12 11 11 11
12 11 14 17 17 16 15 14 13 12 12 11 11 10 10 10 10 10 10 9 8 8 8 8 7 6 6 5 5 5 6 7 5 5 6 8 11 12 12 12 12 12 11
12 10 10 13 14 15 15 14 13 12 11 11 10 10 9 10 9 9 8 8 7 7 7 7 7 6 6 5 5 5 6 7 6 5 7 8 11 12 12 12 12 11 11
11 9 8 9 10 10 12 13 13 12 10 10 10 9 9 8 8 7 6 6 6 6 7 6 6 6 6 5 5 6 7 6 5 5 6 8 11 12 12 12 12 11 11
10 8 7 7 8 9 10 11 11 11 10 9 8 8 7 5 5 5 5 5 6 6 6 6 6 5 5 5 5 6 6 5 5 5 6 9 12 12 12 11 12 12 11
10 9 8 7 7 7 8 8 7 7 7 7 6 5 5 4 4 4 4 4 4 4 5 5 5 4 3 3 4 5 4 5 5 6 7 10 12 13 12 12 11 11 11
11 10 8 8 6 6 5 6 5 5 5 5 5 5 5 3 3 2 2 2 2 2 2 3 3 3 3 2 3 3 4 5 5 7 8 11 12 12 12 12 11 11 11
10 10 9 8 7 5 5 5 5 4 4 3 4 5 4 2 2 2 2 2 2 2 2 2 2 2 2 3 3 3 4 4 6 7 9 11 12 12 11 11 11 11 11
10 9 9 8 7 6 5 4 5 4 4 4 4 5 5 3 2 2 2 2 2 2 2 2 1 2 1 2 3 3 3 4 6 7 7 11 12 12 12 11 11 11 11
10 9 8 8 7 6 5 5 4 5 5 4 4 5 6 5 3 3 2 2 1 2 2 2 2 2 1 1 1 2 3 4 5 6 7 9 11 11 11 12 11 11 11
11 10 9 9 7 7 6 5 5 5 5 3 3 5 5 5 4 3 2 2 1 2 2 2 1 1 1 1 1 1 2 3 4 5 7 7 8 10 11 11 11 11 11
11 10 9 9 7 6 5 4 4 4 4 3 4 4 5 5 5 3 2 1 2 2 2 2 2 1 1 1 1 1 1 1 2 4 6 7 7 7 9 11 11 10 10
12 11 9 8 8 7 6 4 4 4 3 3 4 3 3 5 6 4 2 1 2 2 1 2 2 2 2 1 1 1 1 1 1 3 4 5 7 7 7 9 10 10 10
11 10 9 9 8 6 5 4 3 3 2 2 2 2 3 4 5 4 2 2 2 1 1 1 2 2 2 1 1 0 1 1 1 2 3 3 5 6 6 7 7 7 9
10 9 8 8 7 6 4 4 4 3 2 2 2 3 3 4 4 3 2 2 2 2 1 2 2 2 1 1 2 1 2 1 0 1 1 2 3 4 5 6 6 6 6
11 10 9 8 7 6 5 4 3 3 2 2 1 1 3 3 3 4 3 2 2 2 2 2 2 2 1 1 2 2 2 3 2 1 0 2 2 3 3 5 5 6 5
12 11 10 8 7 6 6 4 3 3 2 1 1 1 1 3 4 3 3 2 2 2 2 2 3 3 2 0 1 3 2 2 1 2 1 1 2 2 2 3 4 6 6
11 11 10 9 7 6 6 6 6 4 3 3 2 2 1 2 3 3 3 3 3 3 2 2 2 2 3 1 0 0 2 3 2 0 2 1 0 2 2 3 3 4 6
10 10 9 9 7 6 6 6 6 4 3 2 2 2 1 1 1 3 3 3 2 2 2 2 2 3 3 2 1 0 0 1 1 2 1 1 1 1 1 2 2 3 5
8 9 9 9 7 6 6 6 6 6 5 4 3 3 2 1 1 2 3 2 2 2 2 2 3 3 2 2 2 1 1 1 1 2 2 2 1 1 1 1 2 3 4
Wind_Direction
160 156 137 129 124 121 118 117 117 116 116 116 118 119 120 122 125 128 129 130 132 135 137 139 137 136 134 134 135 136 138 138 142 141 143 141 138 139 139 137 133 131 131
155 153 138 130 127 124 122 120 119 118 116 116 118 120 122 126 132 133 132 132 134 136 136 138 139 139 138 138 139 140 140 140 138 141 142 143 142 142 143 139 138 137 135
144 146 137 133 130 128 126 124 122 120 118 118 118 119 122 124 130 137 136 136 138 139 138 139 141 143 142 141 141 142 143 142 138 139 137 138 141 145 145 144 144 143 141
143 143 138 136 134 132 130 127 124 122 121 120 120 120 121 122 127 132 135 137 138 140 141 143 144 146 145 144 146 149 150 151 147 145 142 146 148 149 150 151 151 150 149
140 142 142 139 137 134 132 130 128 126 124 122 123 124 125 125 127 132 136 138 140 143 146 148 149 152 150 151 154 157 161 166 163 155 147 153 159 160 162 158 157 157 157
144 146 147 144 141 138 135 133 131 129 127 125 125 127 127 128 131 135 138 142 145 148 150 152 153 154 155 160 165 167 166 169 161 155 156 163 170 169 168 166 163 162 159
148 147 147 146 145 143 140 137 134 133 131 127 128 128 130 132 133 135 140 142 146 149 154 157 158 160 165 170 174 179 176 167 159 159 165 169 174 175 173 170 164 162 162
146 147 148 149 148 147 146 144 140 137 135 132 131 130 134 138 138 141 144 148 150 152 158 161 164 165 169 177 183 183 178 170 160 155 159 163 166 168 170 167 165 166 169
135 138 145 149 149 151 152 150 147 142 140 138 138 134 135 139 141 144 149 153 158 163 166 171 173 173 177 185 192 190 181 168 153 159 162 167 168 169 173 173 173 173 176
130 137 141 146 149 154 156 155 153 149 146 143 142 142 142 144 148 150 154 159 165 170 177 183 188 187 187 194 197 193 185 172 161 163 165 176 177 177 178 177 177 177 180
134 139 142 145 151 153 152 158 157 153 149 146 144 145 147 150 151 158 165 171 177 182 190 195 198 200 204 208 201 195 190 175 164 166 175 185 186 184 182 183 184 182 184
146 150 148 148 149 151 156 152 156 152 148 144 146 148 143 146 159 164 176 180 187 189 192 198 204 209 214 219 208 196 186 168 165 173 186 189 187 185 186 189 190 187 186
155 151 150 151 144 143 143 142 147 147 146 148 149 152 150 149 162 158 158 181 196 179 188 203 209 217 201 203 199 190 184 174 174 184 194 191 184 184 188 190 192 192 191
149 150 151 150 142 142 138 142 145 144 147 154 160 158 153 142 145 145 140 154 159 162 154 176 186 197 192 196 181 174 178 174 176 184 192 192 188 187 190 191 192 194 194
148 148 153 149 146 145 136 149 146 149 151 163 164 164 157 146 150 147 154 160 165 164 150 157 175 169 168 162 164 161 162 170 175 181 185 188 189 192 193 193 196 197 197
150 149 149 147 151 142 145 147 147 151 152 157 165 170 163 159 159 154 151 145 167 176 171 167 173 165 170 160 154 164 171 183 180 181 189 194 195 196 198 200 200 199 198
151 148 146 150 149 147 148 150 147 150 153 156 164 165 160 159 164 159 137 135 175 179 173 162 141 129 137 150 171 195 182 185 180 175 184 189 198 202 202 201 200 200 201
149 147 151 152 150 153 149 144 136 141 148 154 160 157 154 157 159 148 138 155 173 160 158 151 139 129 125 150 197 233 216 182 188 178 180 186 194 199 199 198 195 197 200
155 153 154 149 152 152 146 140 138 137 142 151 148 150 159 160 159 148 155 174 150 139 146 157 141 143 145 159 204 214 213 202 194 180 176 185 191 192 191 195 195 197 200
154 155 153 149 154 147 137 129 120 114 126 134 139 147 154 155 151 145 143 151 134 121 112 137 150 149 159 177 183 195 237 199 199 191 193 182 183 184 185 190 191 196 197
150 150 152 152 160 151 145 149 148 154 155 157 155 146 146 146 143 137 137 136 133 136 154 157 146 131 123 109 89 24 351 344 273 211 193 167 164 167 162 171 178 184 195
159 158 155 159 164 165 166 162 157 152 153 164 151 128 147 146 146 142 136 140 143 141 121 124 132 128 146 107 128 113 13 354 341 349 103 154 161 153 162 172 168 173 182
165 165 164 163 161 165 158 139 131 103 81 82 102 154 176 153 147 143 146 146 148 149 151 151 148 147 162 195 123 139 144 221 301 342 17 167 163 155 170 164 171 177 180
173 167 161 161 160 158 153 150 153 155 165 190 174 173 172 147 150 143 139 146 148 135 143 161 152 148 149 170 282 201 162 161 153 303 337 339 168 164 179 179 175 175 181
171 168 165 159 161 160 157 159 157 159 167 159 137 146 165 172 146 134 136 136 146 139 140 127 117 126 135 148 161 188 101 83 115 147 228 299 335 281 203 186 169 172 183
166 167 162 160 166 167 161 159 157 156 155 147 154 162 177 181 166 132 126 128 141 136 127 137 123 128 148 145 147 129 136 158 185 163 192 229 243 277 264 197 175 179 179
Height
1504 1504 1504 1504 1505 1505 1506 1507 1507 1508 1509 1510 1511 1512 1513 1514 1515 1516 1518 1520 1521 1523 1524 1526 1527 1529 1530 1531 1533 1534 1535 1536 1537 1538 1539 1540 1541 1543 1544 1545 1546 1547 1548
1503 1504 1505 1505 1506 1507 1507 1508 1509 1510 1511 1512 1512 1513 1513 1513 1513 1516 1518 1520 1522 1523 1525 1526 1528 1529 1530 1532 1533 1534 1535 1537 1537 1538 1539 1541 1542 1543 1545 1546 1547 1547 1549
1504 1505 1505 1506 1507 1508 1509 1510 1511 1511 1512 1513 1514 1514 1514 1512 1510 1514 1519 1521 1522 1524 1525 1527 1528 1529 1531 1532 1533 1534 1536 1537 1538 1539 1540 1541 1542 1543 1545 1546 1547 1548 1549
1504 1505 1506 1507 1508 1509 1511 1512 1512 1513 1514 1514 1515 1515 1515 1514 1514 1517 1520 1522 1523 1524 1526 1527 1529 1530 1531 1532 1534 1535 1536 1537 1538 1539 1540 1541 1542 1543 1544 1545 1547 1548 1549
1505 1506 1507 1508 1510 1511 1512 1513 1514 1515 1515 1516 1516 1517 1517 1517 1518 1519 1521 1522 1524 1525 1526 1528 1529 1530 1531 1532 1534 1535 1536 1537 1538 1539 1540 1541 1542 1543 1544 1545 1546 1547 1549
1504 1505 1507 1509 1511 1512 1514 1515 1516 1516 1517 1518 1518 1519 1519 1519 1520 1521 1522 1523 1524 1525 1527 1528 1529 1530 1531 1532 1534 1535 1536 1537 1538 1539 1540 1541 1542 1543 1544 1545 1546 1547 1548
1502 1505 1508 1510 1512 1514 1515 1516 1517 1518 1519 1519 1520 1520 1520 1521 1521 1522 1523 1524 1525 1526 1527 1528 1529 1530 1532 1533 1534 1535 1536 1537 1538 1539 1540 1541 1541 1542 1543 1544 1546 1547 1548
1500 1504 1509 1511 1513 1515 1516 1518 1519 1519 1520 1521 1521 1521 1522 1522 1523 1523 1524 1525 1526 1527 1527 1529 1530 1531 1532 1533 1534 1535 1536 1537 1538 1539 1540 1541 1541 1542 1543 1544 1546 1547 1548
1503 1506 1510 1513 1515 1517 1518 1519 1520 1520 1521 1522 1522 1523 1523 1523 1524 1525 1525 1526 1526 1527 1528 1529 1530 1531 1532 1533 1534 1535 1536 1537 1538 1539 1540 1541 1541 1542 1543 1544 1545 1546 1547
1508 1510 1512 1514 1516 1518 1519 1520 1521 1522 1522 1523 1524 1524 1524 1525 1525 1526 1526 1526 1526 1527 1527 1528 1529 1530 1531 1533 1534 1535 1536 1537 1538 1539 1540 1540 1541 1542 1542 1543 1545 1546 1547
1511 1513 1514 1516 1517 1519 1520 1521 1522 1523 1524 1524 1525 1525 1526 1526 1526 1526 1526 1526 1526 1526 1526 1527 1529 1530 1531 1533 1534 1535 1536 1537 1538 1538 1539 1540 1541 1541 1542 1543 1544 1545 1546
1513 1515 1516 1518 1518 1520 1521 1522 1523 1524 1525 1525 1526 1526 1526 1526 1527 1527 1527 1526 1526 1525 1525 1526 1528 1530 1531 1532 1533 1534 1535 1537 1537 1538 1539 1540 1540 1541 1541 1542 1543 1544 1545
1513 1515 1517 1518 1520 1521 1522 1523 1524 1525 1526 1526 1527 1527 1527 1527 1527 1527 1527 1527 1526 1525 1525 1526 1528 1530 1531 1532 1533 1534 1535 1536 1537 1538 1539 1539 1540 1540 1541 1542 1542 1543 1544
1515 1516 1517 1519 1521 1522 1523 1524 1525 1526 1526 1527 1528 1528 1528 1527 1527 1528 1528 1528 1527 1527 1527 1528 1529 1530 1531 1532 1533 1534 1535 1536 1536 1537 1538 1539 1539 1540 1540 1541 1541 1542 1543
1515 1517 1518 1520 1521 1522 1523 1524 1525 1526 1527 1527 1528 1528 1528 1528 1528 1528 1528 1528 1528 1528 1528 1529 1530 1530 1531 1532 1533 1534 1535 1536 1536 1537 1537 1538 1539 1539 1540 1540 1541 1541 1542
1515 1517 1519 1520 1521 1522 1523 1524 1526 1527 1527 1528 1528 1529 1529 1529 1529 1528 1528 1529 1529 1529 1529 1530 1530 1531 1531 1532 1533 1534 1534 1535 1536 1536 1537 1537 1538 1539 1539 1540 1540 1541 1541
1515 1517 1519 1520 1521 1523 1524 1525 1526 1527 1528 1528 1528 1529 1529 1529 1529 1529 1529 1529 1529 1530 1530 1530 1530 1531 1531 1532 1533 1533 1534 1534 1535 1535 1536 1536 1537 1538 1538 1539 1539 1540 1540
1515 1517 1519 1520 1521 1523 1524 1525 1526 1527 1528 1528 1529 1529 1529 1529 1530 1530 1529 1529 1529 1530 1530 1530 1530 1531 1531 1532 1532 1533 1533 1534 1534 1534 1534 1535 1536 1536 1537 1538 1538 1538 1539
1514 1516 1518 1520 1521 1523 1524 1525 1526 1527 1528 1528 1529 1529 1529 1529 1530 1530 1529 1529 1529 1529 1530 1530 1530 1530 1531 1531 1532 1532 1533 1533 1533 1533 1533 1534 1534 1535 1536 1536 1537 1537 1538
1514 1516 1518 1520 1521 1522 1524 1525 1526 1527 1527 1528 1528 1529 1529 1529 1529 1529 1529 1529 1529 1529 1529 1529 1529 1530 1530 1531 1531 1532 1532 1532 1532 1532 1532 1532 1533 1534 1534 1535 1535 1535 1536
1514 1515 1517 1519 1520 1522 1523 1524 1525 1526 1527 1528 1528 1529 1529 1529 1529 1529 1528 1528 1528 1528 1528 1528 1529 1529 1529 1530 1530 1531 1531 1531 1531 1531 1531 1531 1532 1533 1533 1534 1534 1534 1534
1512 1514 1516 1518 1520 1521 1522 1523 1524 1525 1526 1527 1528 1528 1528 1529 1529 1528 1528 1528 1527 1527 1527 1527 1528 1528 1529 1529 1529 1529 1530 1531 1530 1531 1531 1531 1531 1532 1532 1532 1532 1532 1533
1510 1513 1515 1517 1519 1520 1522 1523 1524 1525 1526 1527 1527 1527 1528 1528 1528 1528 1527 1527 1527 1527 1526 1527 1527 1527 1528 1528 1529 1529 1529 1529 1529 1530 1530 1530 1530 1531 1531 1531 1531 1531 1531
1509 1511 1514 1516 1518 1519 1521 1522 1523 1523 1524 1525 1526 1526 1527 1527 1527 1526 1526 1526 1526 1526 1526 1526 1526 1526 1527 1527 1528 1528 1529 1528 1528 1529 1530 1529 1529 1529 1529 1530 1530 1530 1530
1509 1511 1513 1515 1517 1518 1520 1521 1522 1522 1523 1524 1525 1525 1526 1526 1526 1526 1525 1525 1525 1525 1525 1525 1525 1525 1525 1525 1526 1527 1527 1527 1527 1527 1527 1528 1528 1528 1528 1528 1528 1528 1529
1508 1510 1512 1514 1515 1517 1519 1520 1521 1521 1522 1523 1523 1524 1524 1525 1525 1525 1525 1524 1524 1524 1524 1524 1524 1524 1525 1525 1525 1525 1525 1526 1526 1526 1526 1526 1527 1527 1527 1527 1527 1527 1527